sat.trackr.live / text

‹ back to catalog

STARLINK-36513

NORAD 67429 · 2026-005AB

PAYLOAD ACTIVE UNKNOWN

§ Identity

Operator
Country
US
Launch date
2026-01-12
Launch site
AFETR
Launch vehicle
Mass (kg)
RCS (m²)

Purposes: comms

External: N2YO · Heavens-Above · Gunter

§ Orbital elements

Epoch: 2026-05-25T02:20:16.914336Z

Period
94.27 min
Inclination
42.9989°
Eccentricity
0.0000560
Mean motion
15.27604284 rev/d
Perigee alt
482.6 km
Apogee alt
483.4 km
Semi-major
6,861.1 km
B*
7.4045e-4
RAAN
166.3290°
Arg perigee
302.3601°
Mean anomaly
57.7196°
Rev number
2,037

§ Raw data

STARLINK-365131 67429U 26005AB  26145.09741799  .00020184  00000+0  74045-3 0  99922 67429  42.9989 166.3290 0000560 302.3601  57.7196 15.27604284 20370

JSON: /api/v1/satellites/67429 · /tle

For live sub-satellite position, see the globe view (requires WebGL).

§ Visibility from observer

Set your observer location to see the next 7 days of passes ≥ 10°. The values pass through the URL so the page stays shareable.

No JS? Fill the form by hand. The geolocation button needs JavaScript.